Location: Cedar Ridge
(38.0658°N, 120.2769°W)
Time: 20:24:17
(UTC+00:00)

Cosmos 1727 Rocket - Pass Details

Date: 10 September 2024
Orbit: 960 x 996 km, 82.9° (Epoch: 10 October)

Event Time Altitude Azimuth Distance (km) Brightness Sun altitude
Rises 13:04:40 0° 189° (S) 3,666 6.8 -7.5°
Reaches altitude 10° 13:07:11 10° 191° (S) 2,717 6.1 -7.0°
Maximum altitude 13:13:24 76° 277° (W) 1,002 4.0 -5.8°
Drops below altitude 10° 13:19:37 10° 3° (N) 2,711 6.5 -4.6°
Sets 13:22:07 0° 6° (N) 3,658 7.2 -4.2°
